TimeCST,TemperatureF,Dew PointF,Humidity,Sea Level PressureIn,VisibilityMPH,Wind Direction,Wind SpeedMPH,Gust SpeedMPH,PrecipitationIn,Events,Conditions,WindDirDegrees,DateUTC
12:53 AM,36.0,30.9,82,30.39,10.0,Calm,Calm,-,N/A,,Clear,0,2013-01-19 06:53:00
1:53 AM,34.0,30.0,85,30.38,10.0,Calm,Calm,-,N/A,,Clear,0,2013-01-19 07:53:00
2:53 AM,34.0,30.9,89,30.38,10.0,Calm,Calm,-,N/A,,Clear,0,2013-01-19 08:53:00
3:53 AM,32.0,30.0,92,30.37,10.0,Calm,Calm,-,N/A,,Clear,0,2013-01-19 09:53:00
4:53 AM,32.0,30.0,92,30.37,10.0,Calm,Calm,-,N/A,,Clear,0,2013-01-19 10:53:00
5:53 AM,30.9,28.0,89,30.37,10.0,Calm,Calm,-,N/A,,Clear,0,2013-01-19 11:53:00
6:53 AM,32.0,30.0,92,30.37,10.0,Calm,Calm,-,N/A,,Clear,0,2013-01-19 12:53:00
7:53 AM,36.0,33.1,89,30.37,10.0,Calm,Calm,-,N/A,,Clear,0,2013-01-19 13:53:00
8:53 AM,41.0,36.0,82,30.38,10.0,Calm,Calm,-,N/A,,Clear,0,2013-01-19 14:53:00
9:53 AM,48.0,37.9,68,30.38,10.0,SE,3.5,-,N/A,,Clear,140,2013-01-19 15:53:00
10:53 AM,53.1,37.0,55,30.36,10.0,South,5.8,-,N/A,,Clear,180,2013-01-19 16:53:00
11:53 AM,57.0,37.0,47,30.32,10.0,South,6.9,-,N/A,,Clear,190,2013-01-19 17:53:00
12:53 PM,57.9,39.9,51,30.28,10.0,WSW,8.1,-,N/A,,Clear,240,2013-01-19 18:53:00
1:53 PM,60.1,41.0,49,30.26,10.0,South,8.1,-,N/A,,Clear,190,2013-01-19 19:53:00
2:53 PM,60.1,37.9,44,30.24,10.0,West,4.6,-,N/A,,Clear,260,2013-01-19 20:53:00
3:53 PM,61.0,39.9,46,30.24,10.0,SE,3.5,-,N/A,,Clear,140,2013-01-19 21:53:00
4:53 PM,57.0,39.0,51,30.24,10.0,Calm,Calm,-,N/A,,Clear,0,2013-01-19 22:53:00
5:53 PM,55.0,39.9,57,30.24,10.0,Calm,Calm,-,N/A,,Clear,0,2013-01-19 23:53:00
6:53 PM,48.0,41.0,77,30.25,10.0,Calm,Calm,-,N/A,,Clear,0,2013-01-20 00:53:00
7:53 PM,48.0,41.0,77,30.26,9.0,Calm,Calm,-,N/A,,Clear,0,2013-01-20 01:53:00
8:53 PM,46.0,41.0,83,30.25,10.0,Calm,Calm,-,N/A,,Clear,0,2013-01-20 02:53:00
9:53 PM,45.0,41.0,86,30.24,7.0,Calm,Calm,-,N/A,,Clear,0,2013-01-20 03:53:00
10:53 PM,43.0,39.9,89,30.23,8.0,Calm,Calm,-,N/A,,Clear,0,2013-01-20 04:53:00
11:53 PM,42.1,39.9,92,30.24,8.0,Calm,Calm,-,N/A,,Clear,0,2013-01-20 05:53:00